Location: Couloutre
(47.4081°N, 3.2259°E)
Time: 09:52:44
(UTC+00:00)

STARLINK-32 - Pass Details

Date: 27 February 2020
Orbit: 529 x 530 km, 53.0° (Epoch: 10 April)

Event Time Altitude Azimuth Distance (km) Brightness Sun altitude
Rises 19:17:43 0° 289° (WNW) 2,671 8.7 -19.2°
Reaches altitude 10° 19:20:02 10° 298° (WNW) 1,780 7.3 -19.6°
Maximum altitude 19:23:50 38° 7° (N) 821 4.5 -20.3°
Enters shadow 19:24:30 35° 31° (NNE) 866 4.4 -20.4°
